Orbital Elements at Epoch 2459000.5 (2020-May-31.0) TDB
Reference: JPL 29 (heliocentric ecliptic J2000)
Element | Value | Uncertainty (1-sigma) | Units |
e | .187954669755446 | 3.8088e-08 | |
a | 2.622821906112031 | 1.0677e-08 | au |
q | 2.129850280921395 | 1.024e-07 | au |
i | 11.79759269388139 | 4.2763e-06 | deg |
node | 294.5374829598032 | 2.3188e-05 | deg |
peri | 103.7358647581218 | 2.7339e-05 | deg |
M | 20.89140845262742 | 1.3381e-05 | deg |
tp | 2458910.463863756630 (2020-Mar-01.96386376) | 5.7605e-05 | TDB |
period | 1551.499465491365 4.25 | 9.4734e-06 2.594e-08 | d yr |
n | .2320335958904032 | 1.4168e-09 | deg/d |
Q | 3.115793531302667 | 1.2683e-08 | au |
|
| | Orbit Determination Parameters
Additional Information
|